Total_Precipitation_Accumulation
0.57 0.89 1.17 1.21 1.23 1.16 0.99 0.96 1.02 0.98 0.88 1.00 0.98 0.97 1.00 1.03 1.13 1.08 0.93 0.89 0.90 0.87 0.89 0.90 0.92 1.01 1.09 1.10 1.07 1.07 1.13 1.21 1.31 1.51 1.81 2.33 2.61 2.68 2.54 2.47 2.38 2.18 1.95 1.93
0.70 0.70 0.57 0.64 0.72 0.86 0.87 0.94 0.94 0.89 0.80 0.86 0.81 0.80 0.79 0.78 0.78 0.79 0.73 0.74 0.83 0.83 0.89 0.86 0.86 0.90 0.96 0.96 0.97 1.13 1.20 1.26 1.33 1.56 1.86 2.23 2.66 2.74 2.67 2.53 2.43 2.31 2.18 2.14
0.58 0.50 0.46 0.60 0.71 0.82 0.82 0.88 0.89 0.96 0.92 0.82 0.76 0.84 0.80 0.72 0.65 0.62 0.64 0.68 0.72 0.69 0.75 0.79 0.83 0.87 0.87 0.86 0.84 0.95 1.14 1.36 1.61 1.87 2.16 2.33 2.61 2.71 2.69 2.56 2.48 2.49 2.42 2.29
0.64 0.47 0.47 0.61 0.64 0.66 0.86 0.61 0.59 0.70 1.02 1.09 0.82 1.01 0.81 0.67 0.73 0.69 0.67 0.67 0.67 0.65 0.69 0.72 0.79 0.85 0.82 0.78 0.80 0.86 1.00 1.31 1.69 2.01 2.23 2.47 2.83 2.93 2.77 2.67 2.55 2.56 2.58 2.57
0.63 0.46 0.47 0.56 0.50 0.49 0.66 0.54 0.57 0.65 0.87 0.95 0.75 0.77 0.73 0.65 0.72 0.69 0.62 0.61 0.60 0.57 0.56 0.62 0.67 0.71 0.75 0.81 0.86 0.92 1.11 1.39 1.72 1.92 2.17 2.50 2.69 2.80 2.86 2.73 2.67 2.64 2.67 2.68
0.54 0.41 0.41 0.44 0.42 0.41 0.49 0.62 0.72 0.74 0.90 0.96 0.56 0.63 0.74 0.63 0.52 0.53 0.56 0.55 0.53 0.49 0.47 0.57 0.69 0.76 0.84 0.88 0.98 1.09 1.24 1.44 1.69 1.89 2.14 2.29 2.47 2.63 2.68 2.71 2.64 2.60 2.64 2.73
0.54 0.44 0.34 0.32 0.46 0.48 0.52 0.90 1.28 1.27 1.24 0.96 0.48 0.59 0.71 0.51 0.40 0.43 0.48 0.50 0.48 0.51 0.57 0.69 0.84 1.00 1.08 1.10 1.14 1.25 1.37 1.55 1.70 1.80 1.95 2.04 2.13 2.26 2.23 2.37 2.41 2.53 2.53 2.56
0.51 0.48 0.31 0.27 0.36 0.47 0.46 0.70 1.18 1.30 1.08 0.82 0.62 0.82 0.77 0.50 0.42 0.44 0.45 0.49 0.52 0.63 0.73 0.89 1.07 1.30 1.39 1.41 1.43 1.45 1.51 1.58 1.61 1.65 1.75 1.88 1.95 2.00 1.97 1.95 1.95 2.11 2.26 2.28
0.48 0.45 0.24 0.25 0.29 0.38 0.49 0.56 0.61 0.83 0.73 0.74 0.72 0.81 0.76 0.55 0.51 0.50 0.52 0.57 0.67 0.87 1.01 1.16 1.32 1.45 1.46 1.54 1.54 1.54 1.58 1.58 1.57 1.60 1.64 1.62 1.66 1.72 1.73 1.71 1.78 1.81 1.87 1.88
0.45 0.50 0.30 0.25 0.34 0.36 0.44 0.59 0.76 1.09 1.21 1.04 0.83 0.92 0.92 0.74 0.62 0.56 0.62 0.74 0.90 1.17 1.34 1.52 1.70 1.70 1.65 1.68 1.78 1.72 1.65 1.62 1.65 1.66 1.65 1.57 1.60 1.63 1.63 1.54 1.58 1.54 1.51 1.52
0.39 0.57 0.46 0.34 0.36 0.39 0.46 0.63 0.81 1.13 1.22 1.37 1.39 1.40 1.07 0.86 0.81 0.88 1.00 1.11 1.29 1.55 1.72 1.85 1.97 1.98 1.83 1.72 1.71 1.66 1.60 1.58 1.54 1.60 1.68 1.63 1.57 1.59 1.61 1.53 1.44 1.41 1.41 1.40
0.38 0.59 0.59 0.37 0.30 0.35 0.55 0.78 1.01 1.51 1.44 1.27 1.47 1.60 1.17 0.97 0.96 0.99 1.06 1.22 1.42 1.55 1.64 1.71 1.73 1.84 1.76 1.67 1.57 1.55 1.48 1.37 1.39 1.46 1.57 1.65 1.55 1.51 1.51 1.43 1.47 1.38 1.31 1.30
0.49 0.69 0.85 0.72 0.62 0.59 0.72 0.80 0.92 1.10 1.31 1.37 1.59 1.74 1.26 1.03 1.00 1.02 1.13 1.21 1.25 1.24 1.36 1.49 1.60 1.57 1.61 1.63 1.55 1.66 1.70 1.54 1.54 1.58 1.72 1.71 1.61 1.55 1.53 1.38 1.45 1.39 1.33 1.31
0.53 0.63 0.76 0.90 0.84 0.82 0.86 0.76 0.73 0.94 1.23 1.24 1.30 1.40 1.17 1.09 1.08 1.00 1.06 1.10 1.16 1.17 1.22 1.28 1.40 1.38 1.50 1.62 1.60 1.69 1.74 1.68 1.67 1.77 1.85 1.74 1.66 1.60 1.56 1.42 1.36 1.34 1.35 1.33
0.48 0.49 0.42 0.43 0.41 0.49 0.72 0.82 0.74 0.79 0.89 1.15 1.04 0.92 0.93 0.91 0.96 0.98 0.97 0.99 1.01 1.06 1.06 1.03 1.07 1.14 1.27 1.34 1.36 1.41 1.46 1.49 1.59 1.67 1.69 1.70 1.58 1.46 1.42 1.45 1.29 1.28 1.37 1.38
0.43 0.42 0.31 0.27 0.25 0.35 0.60 0.72 0.73 0.71 0.71 0.73 0.66 0.67 0.60 0.59 0.65 0.72 0.78 0.74 0.76 0.84 0.85 0.84 0.85 0.89 0.98 0.92 0.95 1.00 1.16 1.33 1.49 1.54 1.50 1.47 1.42 1.43 1.40 1.33 1.28 1.26 1.28 1.32
0.44 0.47 0.48 0.38 0.28 0.39 0.63 0.64 0.68 0.54 0.40 0.39 0.48 0.50 0.43 0.44 0.54 0.62 0.71 0.73 0.71 0.72 0.74 0.77 0.78 0.76 0.80 0.80 0.83 0.88 0.98 1.15 1.28 1.34 1.29 1.20 1.17 1.21 1.25 1.23 1.26 1.28 1.27 1.27
0.40 0.52 0.66 0.55 0.51 0.75 0.83 0.65 0.56 0.49 0.36 0.28 0.29 0.32 0.33 0.37 0.48 0.56 0.62 0.71 0.67 0.63 0.64 0.69 0.71 0.70 0.74 0.81 0.87 0.94 1.00 1.02 1.11 1.21 1.20 1.15 1.10 1.07 1.09 1.12 1.19 1.28 1.24 1.20
0.38 0.54 0.77 0.73 0.70 0.70 0.65 0.48 0.46 0.55 0.56 0.33 0.27 0.26 0.26 0.29 0.41 0.49 0.54 0.58 0.53 0.49 0.47 0.48 0.51 0.54 0.60 0.68 0.75 0.78 0.80 0.81 0.86 0.93 0.98 0.97 0.91 0.96 1.04 1.04 1.18 1.27 1.19 1.17
0.50 0.53 0.78 0.81 0.82 0.84 0.62 0.34 0.30 0.45 0.74 0.42 0.28 0.21 0.19 0.26 0.42 0.43 0.42 0.42 0.37 0.35 0.33 0.31 0.35 0.38 0.44 0.52 0.66 0.71 0.67 0.62 0.65 0.71 0.74 0.80 0.81 0.85 0.93 1.04 1.15 1.19 1.17 1.16
0.53 0.60 0.73 0.87 1.01 1.01 0.69 0.39 0.36 0.69 0.81 0.44 0.29 0.22 0.21 0.27 0.30 0.31 0.32 0.35 0.29 0.30 0.31 0.29 0.31 0.36 0.41 0.48 0.57 0.61 0.64 0.60 0.60 0.66 0.66 0.70 0.73 0.79 0.92 1.02 0.99 0.96 0.99 1.04
0.69 0.87 0.95 1.07 1.31 1.36 0.85 0.66 0.69 0.67 0.46 0.34 0.25 0.24 0.25 0.27 0.24 0.25 0.27 0.27 0.23 0.25 0.28 0.28 0.30 0.34 0.43 0.46 0.47 0.50 0.51 0.52 0.55 0.58 0.62 0.61 0.61 0.66 0.74 0.82 0.91 0.90 0.90 0.94
0.66 0.98 1.19 1.17 1.19 1.00 0.76 0.68 0.60 0.51 0.42 0.31 0.27 0.25 0.25 0.25 0.24 0.25 0.23 0.22 0.19 0.21 0.24 0.28 0.34 0.40 0.45 0.48 0.46 0.45 0.46 0.49 0.55 0.59 0.62 0.59 0.57 0.59 0.65 0.73 0.84 0.92 0.94 0.92
0.43 0.49 0.60 0.65 0.66 0.61 0.49 0.42 0.42 0.40 0.38 0.30 0.26 0.25 0.26 0.26 0.25 0.24 0.21 0.20 0.21 0.21 0.23 0.27 0.35 0.39 0.45 0.46 0.46 0.46 0.46 0.47 0.51 0.57 0.62 0.62 0.63 0.66 0.67 0.69 0.75 0.88 0.94 0.86
0.36 0.40 0.45 0.48 0.44 0.44 0.38 0.34 0.35 0.35 0.31 0.27 0.25 0.26 0.28 0.28 0.26 0.24 0.24 0.25 0.24 0.24 0.24 0.27 0.33 0.38 0.43 0.49 0.47 0.47 0.46 0.45 0.48 0.54 0.59 0.59 0.63 0.68 0.67 0.63 0.63 0.70 0.77 0.83
0.30 0.43 0.51 0.47 0.35 0.39 0.41 0.35 0.32 0.32 0.28 0.26 0.28 0.32 0.31 0.27 0.25 0.24 0.24 0.30 0.31 0.30 0.30 0.31 0.32 0.37 0.39 0.44 0.50 0.51 0.55 0.53 0.52 0.54 0.58 0.59 0.62 0.67 0.66 0.63 0.63 0.65 0.65 0.74